Aérodrome :
LOGIN :

S'inscrire | Disclaimer

   EN    FR    IT 

 










Légende :    VFR   VFR Marginal   IFR   IFR Intensif   IFR Très Intensif
Visi : 
Plafond : 
>= 8 km
>= 3000ft
5 à 8 km
1000 à 3000 ft
1500m à 5 km
500 à 1000 ft
800 à 1500m
200 à 500 ft
< 800m
< 200 ft
Symboles :   Orages  Brouillard  Fortes neiges  Fortes précipitations  Vent > 20 kt
SIGMETs :   Divers  Orages  Givrage  Turbulence  Onde Orograph.  Cendres Volcan.







- Altitude de l'aérodrome : 70 ft
- Code IATA : LEI


LEAM - Almeria

DERNIER METAR :
  • 200600Z 04005KT CAVOK 23/20 Q1019

METARs EXPIRÉS :
  • 200530Z 35004KT 280V020 CAVOK 23/20 Q1019
  • 200500Z 31002KT CAVOK 23/21 Q1019
  • 200430Z VRB02KT CAVOK 23/21 Q1019
  • 200400Z 02002KT CAVOK 23/21 Q1019
  • 200330Z 05003KT CAVOK 23/21 Q1019

TAF TAF LEAM
Valide du 20 à 03h jusqu'au 21 à 03h UTC


200200Z 2003/2103 35004KT 9999 FEW030 TX30/2012Z TN22/2006Z
BECMG 2009/2012 19010KT
BECMG 2015/2018 VRB03KT
TEMPO 2013/2019 SCT035CB
Pas de NOTAMs connus pour ce terrain.



MET'MAP, la Météo Aéronautique d'un coup d'oeil ! - Copyright ORBIFLY Décembre 2007 - Disclaimer

ORBIFLY MET'MAP TEAM :

Programmation & Développement : Alexandra Zaïnal
Conception & Développement : Baudouin d'Aumeries
Co-Programmation & Développement : Marc-Olivier Méhu
Soutien technique & logistique : Manuel Goepfert

Contact : metmap@orbifly.com




SOURCES & CREDITS :

   NOAA